Meteo pe oră la Al Karnak

Astăzi, 28 Ianuarie, Joi

Timp Temperatura Precipitaţii Vânt Presiune Umiditate
00:00 +14°C° 0 mm 2 m/s 751 mmHg 24%
01:00 +14°C° 0 mm 2 m/s 751 mmHg 24%
02:00 +13°C° 0 mm 2 m/s 751 mmHg 25%
03:00 +13°C° 0 mm 2 m/s 751 mmHg 26%
04:00 +12°C° 0 mm 2 m/s 751 mmHg 27%
05:00 +12°C° 0 mm 2 m/s 752 mmHg 28%
06:00 +13°C° 0 mm 2 m/s 752 mmHg 28%
07:00 +14°C° 0 mm 2 m/s 753 mmHg 28%
08:00 +14°C° 0 mm 3 m/s 753 mmHg 28%
09:00 +17°C° 0 mm 3 m/s 753 mmHg 28%
10:00 +19°C° 0 mm 4 m/s 754 mmHg 28%
11:00 +21°C° 0 mm 5 m/s 754 mmHg 27%
12:00 +22°C° 0 mm 5 m/s 753 mmHg 27%
13:00 +23°C° 0 mm 6 m/s 753 mmHg 26%
14:00 +24°C° 0 mm 7 m/s 752 mmHg 26%
15:00 +23°C° 0 mm 6 m/s 752 mmHg 26%
16:00 +22°C° 0 mm 6 m/s 752 mmHg 26%
17:00 +20°C° 0 mm 5 m/s 752 mmHg 27%
18:00 +19°C° 0 mm 5 m/s 753 mmHg 31%
19:00 +17°C° 0 mm 4 m/s 753 mmHg 35%
20:00 +14°C° 0 mm 4 m/s 753 mmHg 39%
21:00 +13°C° 0 mm 4 m/s 754 mmHg 40%
22:00 +12°C° 0 mm 4 m/s 754 mmHg 41%
23:00 +12°C° 0 mm 3 m/s 754 mmHg 42%

Mâine, 29 Ianuarie, Vineri

Timp Temperatura Precipitaţii Vânt Presiune Umiditate
00:00 +11°C° 0 mm 3 m/s 754 mmHg 44%
01:00 +10°C° 0 mm 2 m/s 754 mmHg 46%
02:00 +9°C° 0 mm 2 m/s 754 mmHg 48%
03:00 +9°C° 0 mm 2 m/s 755 mmHg 50%
04:00 +8°C° 0 mm 2 m/s 755 mmHg 51%
05:00 +8°C° 0 mm 2 m/s 755 mmHg 53%
06:00 +9°C° 0 mm 2 m/s 755 mmHg 49%
07:00 +12°C° 0 mm 2 m/s 756 mmHg 45%
08:00 +13°C° 0 mm 2 m/s 756 mmHg 41%
09:00 +14°C° 0 mm 4 m/s 756 mmHg 37%
10:00 +16°C° 0 mm 5 m/s 756 mmHg 34%
11:00 +19°C° 0 mm 6 m/s 756 mmHg 30%
12:00 +20°C° 0 mm 7 m/s 755 mmHg 29%
13:00 +20°C° 0 mm 7 m/s 755 mmHg 28%
14:00 +21°C° 0 mm 8 m/s 754 mmHg 27%
15:00 +20°C° 0 mm 7 m/s 754 mmHg 27%
16:00 +20°C° 0 mm 6 m/s 754 mmHg 28%
17:00 +19°C° 0 mm 5 m/s 755 mmHg 29%
18:00 +17°C° 0 mm 4 m/s 755 mmHg 33%
19:00 +14°C° 0 mm 4 m/s 756 mmHg 37%
20:00 +12°C° 0 mm 3 m/s 756 mmHg 42%
21:00 +12°C° 0 mm 3 m/s 756 mmHg 44%
22:00 +11°C° 0 mm 3 m/s 757 mmHg 46%
23:00 +10°C° 0 mm 2 m/s 757 mmHg 48%

Poimâine, 30 Ianuarie, Sâmbătă

Timp Temperatura Precipitaţii Vânt Presiune Umiditate
00:00 +10°C° 0 mm 2 m/s 757 mmHg 50%
01:00 +9°C° 0 mm 2 m/s 757 mmHg 52%
02:00 +8°C° 0 mm 2 m/s 756 mmHg 54%
03:00 +8°C° 0 mm 2 m/s 756 mmHg 56%
04:00 +7°C° 0 mm 2 m/s 756 mmHg 59%
05:00 +7°C° 0 mm 2 m/s 756 mmHg 61%
06:00 +8°C° 0 mm 2 m/s 757 mmHg 57%
07:00 +10°C° 0 mm 1 m/s 757 mmHg 52%
08:00 +12°C° 0 mm 1 m/s 757 mmHg 47%
09:00 +14°C° 0 mm 2 m/s 757 mmHg 42%
10:00 +16°C° 0 mm 2 m/s 757 mmHg 36%
11:00 +17°C° 0 mm 2 m/s 757 mmHg 30%
12:00 +19°C° 0 mm 2 m/s 756 mmHg 27%
13:00 +20°C° 0 mm 2 m/s 755 mmHg 23%
14:00 +22°C° 0 mm 1 m/s 755 mmHg 20%
15:00 +21°C° 0 mm 1 m/s 754 mmHg 20%
16:00 +21°C° 0 mm 1 m/s 754 mmHg 21%
17:00 +20°C° 0 mm 1 m/s 754 mmHg 21%
18:00 +17°C° 0 mm 2 m/s 754 mmHg 24%
19:00 +15°C° 0 mm 2 m/s 755 mmHg 26%
20:00 +14°C° 0 mm 2 m/s 755 mmHg 29%
21:00 +13°C° 0 mm 2 m/s 755 mmHg 29%
22:00 +13°C° 0 mm 2 m/s 755 mmHg 30%
23:00 +12°C° 0 mm 2 m/s 755 mmHg 31%

31 Ianuarie, Duminică

Timp Temperatura Precipitaţii Vânt Presiune Umiditate
00:00 +10°C° 0 mm 2 m/s 755 mmHg 32%
01:00 +11°C° 0 mm 1 m/s 754 mmHg 34%
02:00 +10°C° 0 mm 1 m/s 754 mmHg 36%
03:00 +10°C° 0 mm 1 m/s 754 mmHg 37%
04:00 +9°C° 0 mm 1 m/s 754 mmHg 37%
05:00 +9°C° 0 mm 1 m/s 753 mmHg 38%
06:00 +11°C° 0 mm 1 m/s 754 mmHg 34%
07:00 +13°C° 0 mm 1 m/s 754 mmHg 30%
08:00 +15°C° 0 mm 1 m/s 755 mmHg 26%
09:00 +18°C° 0 mm 1 m/s 754 mmHg 24%
10:00 +19°C° 0 mm 2 m/s 754 mmHg 21%
11:00 +21°C° 0 mm 3 m/s 754 mmHg 19%
12:00 +24°C° 0 mm 3 m/s 753 mmHg 18%
13:00 +25°C° 0 mm 3 m/s 753 mmHg 18%
14:00 +27°C° 0 mm 3 m/s 752 mmHg 17%
15:00 +26°C° 0 mm 3 m/s 752 mmHg 18%
16:00 +25°C° 0 mm 2 m/s 752 mmHg 20%
17:00 +24°C° 0 mm 2 m/s 752 mmHg 21%
18:00 +21°C° 0 mm 2 m/s 752 mmHg 26%
19:00 +19°C° 0 mm 2 m/s 753 mmHg 31%
20:00 +17°C° 0 mm 2 m/s 753 mmHg 36%
21:00 +16°C° 0 mm 1 m/s 753 mmHg 39%
22:00 +15°C° 0 mm 1 m/s 753 mmHg 43%
23:00 +14°C° 0 mm 1 m/s 753 mmHg 47%

1 Februarie, Luni

Timp Temperatura Precipitaţii Vânt Presiune Umiditate
00:00 +13°C° 0 mm 1 m/s 753 mmHg 52%
01:00 +13°C° 0 mm 1 m/s 753 mmHg 57%
02:00 +11°C° 0 mm 0 m/s 753 mmHg 62%
03:00 +12°C° 0 mm 1 m/s 753 mmHg 61%
04:00 +12°C° 0 mm 1 m/s 752 mmHg 60%
05:00 +12°C° 0 mm 1 m/s 752 mmHg 59%
06:00 +14°C° 0 mm 1 m/s 752 mmHg 50%
07:00 +16°C° 0 mm 1 m/s 753 mmHg 42%
08:00 +19°C° 0 mm 1 m/s 753 mmHg 33%
09:00 +21°C° 0 mm 1 m/s 753 mmHg 29%
10:00 +23°C° 0 mm 2 m/s 753 mmHg 25%
11:00 +26°C° 0 mm 2 m/s 753 mmHg 21%
12:00 +27°C° 0 mm 2 m/s 752 mmHg 19%
13:00 +28°C° 0 mm 1 m/s 751 mmHg 16%
14:00 +29°C° 0 mm 1 m/s 751 mmHg 13%
15:00 +28°C° 0 mm 1 m/s 750 mmHg 14%
16:00 +27°C° 0 mm 1 m/s 750 mmHg 14%
17:00 +25°C° 0 mm 1 m/s 750 mmHg 15%
18:00 +23°C° 0 mm 1 m/s 750 mmHg 18%
19:00 +21°C° 0 mm 1 m/s 751 mmHg 20%
20:00 +19°C° 0 mm 1 m/s 751 mmHg 23%
21:00 +18°C° 0 mm 1 m/s 751 mmHg 28%
22:00 +16°C° 0 mm 1 m/s 751 mmHg 32%
23:00 +16°C° 0 mm 1 m/s 751 mmHg 37%

2 Februarie, Marţi

Timp Temperatura Precipitaţii Vânt Presiune Umiditate
00:00 +14°C° 0 mm 0 m/s 751 mmHg 43%
01:00 +13°C° 0 mm 0 m/s 751 mmHg 49%
02:00 +13°C° 0 mm 0 m/s 751 mmHg 54%
03:00 +12°C° 0 mm 0 m/s 751 mmHg 57%
04:00 +12°C° 0 mm 0 m/s 750 mmHg 60%
05:00 +12°C° 0 mm 0 m/s 750 mmHg 63%
06:00 +14°C° 0 mm 0 m/s 751 mmHg 51%
07:00 +17°C° 0 mm 0 m/s 751 mmHg 39%
08:00 +19°C° 0 mm 0 m/s 751 mmHg 27%
09:00 +23°C° 0 mm 1 m/s 751 mmHg 24%
10:00 +25°C° 0 mm 1 m/s 751 mmHg 20%
11:00 +27°C° 0 mm 1 m/s 751 mmHg 16%
12:00 +28°C° 0 mm 1 m/s 750 mmHg 15%
13:00 +29°C° 0 mm 1 m/s 750 mmHg 14%
14:00 +30°C° 0 mm 2 m/s 749 mmHg 13%
15:00 +29°C° 0 mm 1 m/s 749 mmHg 14%
16:00 +28°C° 0 mm 1 m/s 749 mmHg 15%
17:00 +26°C° 0 mm 1 m/s 748 mmHg 16%
18:00 +24°C° 0 mm 1 m/s 749 mmHg 20%
19:00 +22°C° 0 mm 1 m/s 749 mmHg 24%
20:00 +18°C° 0 mm 0 m/s 749 mmHg 28%
21:00 +19°C° 0 mm 1 m/s 749 mmHg 28%
22:00 +19°C° 0 mm 1 m/s 749 mmHg 28%
23:00 +18°C° 0 mm 2 m/s 750 mmHg 29%
Arată mai mult

Formular de consimțământ

Meteoprog și furnizorii noștri de servicii pot stoca și accesa date personale, precum cookies, identificatori de dispozitiv sau alte tehnologii similare pe dispozitivul dumneavoastră și procesa astfel de date pentru a personaliza conținutul și reclamele, dar și pentru a oferi caracteristici de social media și pentru a analiza traficul.

  • Stocarea și/sau accesarea informațiilor pe dispozitivul dumneavoastră

    Cookies, identificatori de dispozitiv sau alte informații pot fi stocate sau accesate pe dispozitiv în scopurile indicate mai sus.

  • Reclame și conținut personalizat, evaluarea reclamelor și a conținutului, informații despre audiențe și dezvoltarea produselor

    Reclamele și conținutul pot fi personalizate pe baza unui profil. Pot fi adăugate date suplimentare pentru a personaliza mai bine reclamele și conținutul. Performanța reclamelor și conținutului poate fi măsurată. Pot fi obținute informații despre utilizatorii care au văzut reclamele și conținutul. Aceste date pot fi utilizate pentru a dezvolta sau îmbunătăți experiența utilizatorilor, sistemele și software-ul.

Dând clic pe ‘Sunt de acord’, permiteți utilizarea cookie-urilor menționate, a identificatorilor de dispozitiv, balizelor web sau altor tehnologii similare. Setările pot fi modificate din browser-ul dispozitivului dumneavoastră.

În anumite scopuri, interesele legitime pot prima asupra consimțământului. Puteți citi mai multe informații în acest sens în Politica privind Confidențialitatea Datelor și Cookie.